This is the latest recevied weather packets stored in our database for station/object KG2V. If no packets are shown the sender has not sent any weather packets the latest 10 day(s).
| Time | Temp. | Humidity | Pressure | Rain* | Wind** | Luminosity | Snow |
|---|---|---|---|---|---|---|---|
| 1777507374 | 7.78° C | 99% | 1003 hPa | 0 mm | - | 1 W/m² | - |
| 1777507071 | 7.78° C | 99% | 1002.9 hPa | 0 mm | - | 2 W/m² | - |
| 1777506769 | 7.78° C | 99% | 1002.7 hPa | 0 mm | - | 2 W/m² | - |
| 1777506465 | 7.78° C | 99% | 1002.7 hPa | 0 mm | - | 2 W/m² | - |
| 1777506161 | 7.78° C | 99% | 1002.8 hPa | 0 mm | - | 2 W/m² | - |
| 1777505856 | 7.78° C | 99% | 1003.2 hPa | 0 mm | - | 2 W/m² | - |
| 1777505553 | 7.78° C | 99% | 1003.4 hPa | 0 mm | - | 2 W/m² | - |
| 1777505250 | 7.78° C | 99% | 1003.1 hPa | 0 mm | - | 3 W/m² | - |
| 1777504947 | 7.78° C | 99% | 1002.7 hPa | 0 mm | - | 4 W/m² | - |
| 1777504644 | 7.78° C | 99% | 1002.9 hPa | 0 mm | - | 5 W/m² | - |
| 1777504341 | 7.78° C | 99% | 1003.1 hPa | 1.78 mm | - | 5 W/m² | - |
| 1777504035 | 7.78° C | 99% | 1002.6 hPa | 1.78 mm | - | 18 W/m² | - |
| 1777503732 | 7.78° C | 99% | 1002.9 hPa | 1.27 mm | - | 24 W/m² | - |
| 1777503429 | 7.78° C | 99% | 1002.9 hPa | 1.27 mm | - | 20 W/m² | - |
| 1777503124 | 7.78° C | 99% | 1003.3 hPa | 1.78 mm | - | 12 W/m² | - |
| 1777502822 | 7.78° C | 99% | 1003.3 hPa | 4.83 mm | - | 12 W/m² | - |
| 1777502519 | 7.78° C | 99% | 1003.6 hPa | 6.1 mm | - | 13 W/m² | - |
| 1777502216 | 7.78° C | 99% | 1003.6 hPa | 7.87 mm | - | 10 W/m² | - |
| 1777501913 | 7.78° C | 99% | 1003.6 hPa | 7.87 mm | - | 9 W/m² | - |
| 1777501610 | 7.78° C | 99% | 1003.2 hPa | 6.6 mm | - | 14 W/m² | - |
| 1777501307 | 7.78° C | 99% | 1003.4 hPa | 3.05 mm | - | 12 W/m² | - |
| 1777501005 | 7.78° C | 99% | 1003.5 hPa | 3.05 mm | - | 9 W/m² | - |
| 1777500703 | 7.78° C | 99% | 1003.1 hPa | 3.05 mm | - | 11 W/m² | - |
| 1777500399 | 7.78° C | 99% | 1002.8 hPa | 6.1 mm | - | 16 W/m² | - |
| 1777500095 | 7.78° C | 99% | 1003 hPa | 7.87 mm | - | 12 W/m² | - |
* Rain latest hour (hover to see other rain measurements)
** Current wind speed in m/s (hover to see current wind gust speed)